Regional Weather Roundup
Issued by NWS

Home | Current Version | Previous Version | Text Only | Print | Product List | Glossary Off
Versions: 1 2 3 4 5 6 7 8 9 10 11 12 13 14 15 16 17 18 19 20 21 22 23 24 25 26 27 28 29 30 31 32 33 34 35 36 37 38 39 40 41 42 43 44 45 46 47 48 49 50

000
ASUS43 KLMK 011810
RWRKY
KENTUCKY REGIONAL WEATHER ROUNDUP
NATIONAL WEATHER SERVICE LOUISVILLE KY
200 PM EDT SAT AUG 01 2015

NOTE "FAIR" INDICATES FEW OR NO CLOUDS BELOW 12,000 FEET
WITH NO SIGNIFICANT WEATHER AND/OR OBSTRUCTIONS TO VISIBILITY.

KYZ001>023-026-027-061>063-070>075-011900-
WESTERN AND SOUTH CENTRAL KENTUCKY

CITY           SKY/WX    TMP DP  RH WIND       PRES   REMARKS
PADUCAH        SUNNY     89  71  55 N6        30.02F HX  95
HENDERSON      SUNNY     84  61  45 N6        30.02F
OWENSBORO      SUNNY     85  63  47 N9        30.02F
HOPKINSVILLE   SUNNY     87  69  55 VRB6      30.02F HX  91
BOWLING GREEN  SUNNY     90  68  48 NW9       30.01F HX  94
GLASGOW        MOSUNNY  N/A N/A N/A NW6       30.01F
$$

KYZ024-025-028>034-038-045-046-053-011900-
NORTH CENTRAL KENTUCKY

CITY           SKY/WX    TMP DP  RH WIND       PRES   REMARKS
LOUISVILLE/SDF MOSUNNY   87  54  32 NW15G21   30.00F
LOUISVILLE/LOU SUNNY     86  56  35 VRB6      30.01F
FORT KNOX      SUNNY     84  62  48 W8        30.01S
$$

KYZ035>037-039>044-047>052-055>060-089>105-011900-
NORTHEAST KENTUCKY

CITY           SKY/WX    TMP DP  RH WIND       PRES   REMARKS
LEXINGTON      SUNNY     85  60  42 MISG      30.01F
COVINGTON      MOSUNNY   82  56  40 VRB5      30.01F
FRANKFORT      SUNNY     83  55  38 W7        30.01F
$$

KYZ054-064>069-076>088-106>120-011900-
SOUTHEAST KENTUCKY

CITY           SKY/WX    TMP DP  RH WIND       PRES   REMARKS
JACKSON        MOSUNNY   83  61  47 VRB6      30.02F
LONDON         MOSUNNY   87  59  38 NW8       30.02F
SOMERSET       SUNNY     84  59  42 NW7       30.03F
MIDDLESBORO    MOSUNNY   85  62  45 N7        30.03F
MONTICELLO     PTCLDY    87  68  53 W6        30.05F HX  90
$$




USA.gov is the U.S. government's official web portal to all federal, state and local government web resources and services.